Showing default

NOAA 16, 26536

Orbit data source: Space-Track

NOAA 16, 26536 is a payload satellite owned by NOAA (US) in SSO that was launched on Thu, 21 Sep 2000 UTC via a TITAN II SLV launch vehicle from the Air Force Western Test Range (AFWTR). Payload-class satellites include a variety of spacecraft equipped with specific instruments for various scientific and technological missions. These include communications satellites like Starlink; space stations such as the ISS; scientific satellites like the Hubble; Earth observation satellites from companies like Planet Labs, Umbra, and HawkEye 360; GPS; miniature CubeSats for education and research; and military/defense satellites.

Loading next visibility...
Identifier
26536, 2000-055A
Orbit
SSO
Country
Flag of USUS
Related business
Manufacturer
LM/EW
Mission
Non-operational Civil Weather
Bus & Motor
ATN, Unknown motor
Mass
2,231 kg wet, 1,403 kg dry
Launch date (UTC)
2000-09-21 (26 years ago)
Launch vehicle
TITAN II SLV
Launch site
Air Force Western Test Range (AFWTR)
Object type
Payload
Rocket body
Debris
Shape & HBR
Box + 1 Pan, 3.5 m
Radar Cross Section
11.218 m², Large (>1 m²)

Expand to show TLE details & history
Last TLE update: 4 hours ago

TLE from 4 hours ago
0 NOAA 16
1 26536U 00055A   26255.98464332  .00000027  00000-0  35532-4 0  9992
2 26536  98.4645 265.6374 0011417  53.1940 307.0280 14.13936083636136
Epoch: 2026-09-12T23:37Z
TLE epoch observation values (Epoch: 2026-09-12T23:37:53.182Z)
Latitude
-0.00002°
Longitude
-80.81999°
Altitude
843.886 km
Speed
7.433 km/s
True Right ascension
17h 42m 32s
True Declination
0° 00' 00"
Sunlit
Object was in daylight at epoch
Visualization orbit readout
Latitude
Unknown
Longitude
Unknown
Altitude
Unknown
Speed
Unknown
Apparent Right ascension
Unknown
Apparent Declination
Unknown
Sunlit
N/A
Visualization observer readout
Local Sidereal Time
19:39:38
Azimuth
Unknown
Elevation
Unknown
Doppler factor
Unknown
Orbital elements
Apogee altitude
851.333 km
Perigee altitude
834.844 km
Semi-major axis
7,221.226 km
Eccentricity
0.00114
Inclination
98.4645°
RAAN
265.6374°
Arg. of periapsis
53.194°
True anomaly
306.92346°
Mean anomaly
307.028°
Eccentric anomaly
306.97574°
Mean motion
3.53693 °/min
Orbital period
101.78 mins
BSTAR
0.000035532
Loading maneuver chart data...
Computing Atmospheric mass density...
Loading historical data...
Loading historical data...
Loading historical data...
Loading historical data...
Loading historical data...
Loading historical data...
Loading historical data...

Documentation

Showing up to 5 results
|